INSAT-3DR (41752 NORAD) Tracking and Keplerian Element Data

This shows tracking and keplerian element data for the satellite.

Feedback or suggestion? Click here.




ElementValue
Catalog41752
NameINSAT-3DR
Epoch Orbit3082
Epoch Day34.69825667
Epoch Year2025
RAAN98.5224
Inclination0.0411
Eccentricity0.001319
Argument of Perigee178.6142
Mean Anonmoly182.3265
Mean Motion1.00270668
Decay Rate-7.3E-07
L11 41752U 16054A 25034.69825667 -.00000073 00000+0 00000+0 0 9997
L22 41752 0.0411 98.5224 0013190 178.6142 182.3265 1.00270668 30820



Live tracking and technical data element details for INSAT-3DR (NORAD 41752). INSAT-3DR can be tracked NOW for your location showing map with azimuth and elevation plus other details from your city location.







IsCatalogInMostPopularTable: catalog: 41752, numindb: 660
Update: records affected: 1



GetName: 41752 INSAT-3DR

Hit Count: updated at: Fri, 18 Jul 2025 17:16:33 GMT